| time (UTC) | temp C | wind direction | speed KPH | gust KPH | rain 1hr cm | rain 24hr cm | rain mn cm | humidity % | barometer mb |
| 20260507213048 | 23 | 0 | 1.6 | 8.0 | 0.00 | 0.00 | 0.00 | 1019.6 | |
| 20260507212527 | 22 | 280 | 1.6 | 11.3 | 0.00 | 0.00 | 0.00 | 1019.8 | |
| 20260507212027 | 22 | 307 | 1.6 | 11.3 | 0.00 | 0.00 | 0.00 | 1019.6 | |
| 20260507211539 | 21 | 22 | 3.2 | 11.3 | 0.00 | 0.00 | 0.00 | 1019.8 | |
| 20260507211026 | 22 | 317 | 1.6 | 9.7 | 0.00 | 0.00 | 0.00 | 1020.0 | |
| 20260507210527 | 22 | 105 | 1.6 | 14.5 | 0.00 | 0.00 | 0.00 | 1019.9 | |
| 20260507210105 | 22 | 288 | 3.2 | 14.5 | 0.00 | 0.00 | 0.00 | 1020.0 | |
| 20260507205527 | 21 | 322 | 1.6 | 14.5 | 0.00 | 0.00 | 0.00 | 1020.0 | |
| 20260507205027 | 22 | 355 | 1.6 | 8.0 | 0.00 | 0.00 | 0.00 | 1020.2 | |
| 20260507204537 | 21 | 26 | 1.6 | 8.0 | 0.00 | 0.00 | 0.00 | 1020.2 | |
| 20260507204026 | 20 | 68 | 1.6 | 12.9 | 0.00 | 0.00 | 0.00 | 1020.1 | |
| 20260507203527 | 20 | 227 | 1.6 | 12.9 | 0.00 | 0.00 | 0.00 | 1020.3 | |
| 20260507203037 | 21 | 77 | 1.6 | 9.7 | 0.00 | 0.00 | 0.00 | 1020.4 | |
| 20260507202526 | 21 | 195 | 1.6 | 9.7 | 0.00 | 0.00 | 0.00 | 1020.3 | |
| 20260507202026 | 21 | 355 | 1.6 | 9.7 | 0.00 | 0.00 | 0.00 | 1020.3 | |
| 20260507201543 | 21 | 227 | 1.6 | 8.0 | 0.00 | 0.00 | 0.00 | 1020.2 | |
| 20260507201029 | 21 | 158 | 3.2 | 11.3 | 0.00 | 0.00 | 0.00 | 1020.3 | |
| 20260507200527 | 21 | 136 | 1.6 | 11.3 | 0.00 | 0.00 | 0.00 | 1020.4 | |
| 20260507200052 | 21 | 99 | 1.6 | 8.0 | 0.00 | 0.00 | 0.00 | 1020.3 | |
| 20260507195527 | 21 | 241 | 1.6 | 6.4 | 0.00 | 0.00 | 0.00 | 1020.4 | |
| 20260507195028 | 21 | 183 | 1.6 | 8.0 | 0.00 | 0.00 | 0.00 | 1020.5 | |
| 20260507194538 | 20 | 136 | 3.2 | 9.7 | 0.00 | 0.00 | 0.00 | 1020.4 | |
| 20260507194026 | 20 | 255 | 3.2 | 9.7 | 0.00 | 0.00 | 0.00 | 1020.5 | |
| 20260507193533 | 21 | 99 | 1.6 | 6.4 | 0.00 | 0.00 | 0.00 | 1020.7 | |
| 20260507193102 | 20 | 341 | 1.6 | 8.0 | 0.00 | 0.00 | 0.00 | 1020.6 | |
| 20260507192528 | 21 | 268 | 1.6 | 8.0 | 0.00 | 0.00 | 0.00 | 1020.7 | |
| 20260507192028 | 21 | 158 | 1.6 | 9.7 | 0.00 | 0.00 | 0.00 | 1020.7 | |
| 20260507191537 | 21 | 12 | 1.6 | 9.7 | 0.00 | 0.00 | 0.00 | 1020.8 | |
| 20260507191027 | 22 | 122 | 3.2 | 8.0 | 0.00 | 0.00 | 0.00 | 1020.8 | |
| 20260507190527 | 21 | 252 | 1.6 | 8.0 | 0.00 | 0.00 | 0.00 | 1020.9 | |
| 20260507190039 | 20 | 263 | 1.6 | 9.7 | 0.00 | 0.00 | 0.00 | 1021.0 | |
| 20260507185528 | 20 | 131 | 3.2 | 9.7 | 0.00 | 0.00 | 0.00 | 1021.1 | |
| 20260507185028 | 20 | 109 | 1.6 | 8.0 | 0.00 | 0.00 | 0.00 | 1021.0 | |
| 20260507184540 | 20 | 302 | 1.6 | 9.7 | 0.00 | 0.00 | 0.00 | 1021.0 | |
| 20260507184026 | 21 | 124 | 1.6 | 9.7 | 0.00 | 0.00 | 0.00 | 1021.2 | |
| 20260507183530 | 21 | 304 | 1.6 | 8.0 | 0.00 | 0.00 | 0.00 | 1021.1 | |
| 20260507183040 | 21 | 255 | 1.6 | 8.0 | 0.00 | 0.00 | 0.00 | 1021.4 | |
| 20260507182527 | 20 | 28 | 1.6 | 8.0 | 0.00 | 0.00 | 0.00 | 1021.4 | |
| 20260507182026 | 20 | 248 | 1.6 | 8.0 | 0.00 | 0.00 | 0.00 | 1021.3 | |
| 20260507181537 | 20 | 241 | 1.6 | 8.0 | 0.00 | 0.00 | 0.00 | 1021.5 | |
| 20260507181029 | 20 | 338 | 1.6 | 6.4 | 0.00 | 0.00 | 0.00 | 1021.5 | |
| 20260507180526 | 20 | 338 | 1.6 | 9.7 | 0.00 | 0.00 | 0.00 | 1021.5 | |
| 20260507180043 | 19 | 64 | 3.2 | 9.7 | 0.00 | 0.00 | 0.00 | 1021.6 | |
| 20260507175526 | 19 | 49 | 1.6 | 9.7 | 0.00 | 0.00 | 0.00 | 1021.7 | |
| 20260507175028 | 17 | 291 | 3.2 | 8.0 | 0.00 | 0.00 | 0.00 | 1021.6 | |
| 20260507174536 | 20 | 0 | 1.6 | 8.0 | 0.00 | 0.00 | 0.00 | 1021.8 | |
| 20260507174025 | 20 | 268 | 1.6 | 9.7 | 0.00 | 0.00 | 0.00 | 1021.7 | |
| 20260507173526 | 18 | 322 | 3.2 | 9.7 | 0.00 | 0.00 | 0.00 | 1021.8 | |
| 20260507173101 | 19 | 99 | 1.6 | 6.4 | 0.00 | 0.00 | 0.00 | 1021.8 | |
| 20260507172526 | 19 | 236 | 1.6 | 6.4 | 0.00 | 0.00 | 0.00 | 1021.9 | |
| 20260507172025 | 19 | 268 | 1.6 | 6.4 | 0.00 | 0.00 | 0.00 | 1021.8 | |
| 20260507171538 | 19 | 268 | 1.6 | 6.4 | 0.00 | 0.00 | 0.00 | 1021.8 | |
| 20260507171027 | 20 | 278 | 1.6 | 6.4 | 0.00 | 0.00 | 0.00 | 1021.8 | |
| 20260507170527 | 18 | 268 | 1.6 | 6.4 | 0.00 | 0.00 | 0.00 | 1021.8 | |
| 20260507170038 | 18 | 311 | 1.6 | 4.8 | 0.00 | 0.00 | 0.00 | 1021.8 | |
| 20260507165526 | 18 | 268 | 0.0 | 4.8 | 0.00 | 0.00 | 0.00 | 1021.9 | |
| 20260507165029 | 16 | 259 | 1.6 | 8.0 | 0.00 | 0.00 | 0.00 | 1021.8 | |
| 20260507164538 | 16 | 90 | 0.0 | 8.0 | 0.00 | 0.00 | 0.00 | 1021.8 | |
| 20260507164029 | 14 | 254 | 3.2 | 8.0 | 0.00 | 0.00 | 0.00 | 1021.9 | |
| 20260507163526 | 17 | 243 | 1.6 | 8.0 | 0.00 | 0.00 | 0.00 | 1021.7 | |
| 20260507163038 | 15 | 0 | 1.6 | 6.4 | 0.00 | 0.00 | 0.00 | 1021.8 | |
| 20260507162525 | 14 | 311 | 1.6 | 6.4 | 0.00 | 0.00 | 0.00 | 1021.8 | |
| 20260507162027 | 13 | 302 | 1.6 | 6.4 | 0.00 | 0.00 | 0.00 | 1021.8 | |
| 20260507161557 | 14 | 311 | 1.6 | 6.4 | 0.00 | 0.00 | 0.00 | 1021.8 | |
| 20260507161025 | 14 | 311 | 1.6 | 6.4 | 0.00 | 0.00 | 0.00 | 1021.8 | |
| 20260507160525 | 15 | 0 | 0.0 | 3.2 | 0.00 | 0.00 | 0.00 | 1021.8 | |
| 20260507160057 | 14 | 268 | 0.0 | 4.8 | 0.00 | 0.00 | 0.00 | 1021.7 | |
| 20260507155528 | 14 | 0 | 1.6 | 4.8 | 0.00 | 0.00 | 0.00 | 1021.6 | |
| 20260507155025 | 15 | 0 | 0.0 | 4.8 | 0.00 | 0.00 | 0.00 | 1021.8 | |
| 20260507154537 | 13 | 227 | 0.0 | 4.8 | 0.00 | 0.00 | 0.00 | 1021.7 | |
| 20260507154024 | 12 | 0 | 0.0 | 3.2 | 0.00 | 0.00 | 0.00 | 1021.9 | |
| 20260507153524 | 12 | 205 | 0.0 | 4.8 | 0.00 | 0.00 | 0.00 | 1021.8 | |
| 20260507153036 | 12 | 0 | 0.0 | 6.4 | 0.00 | 0.00 | 0.00 | 1021.8 | |
| 20260507152523 | 12 | 216 | 1.6 | 6.4 | 0.00 | 0.00 | 0.00 | 1021.7 | |
| 20260507152026 | 11 | 9 | 0.0 | 6.4 | 0.00 | 0.00 | 0.00 | 1021.8 | |
| 20260507151536 | 11 | 331 | 1.6 | 6.4 | 0.00 | 0.00 | 0.00 | 1021.8 | |
| 20260507151024 | 11 | 268 | 0.0 | 4.8 | 0.00 | 0.00 | 0.00 | 1021.7 | |
| 20260507150524 | 11 | 0 | 0.0 | 4.8 | 0.00 | 0.00 | 0.00 | 1021.8 | |
| 20260507150040 | 11 | 116 | 0.0 | 4.8 | 0.00 | 0.00 | 0.00 | 1021.8 | |
| 20260507145523 | 11 | 141 | 1.6 | 9.7 | 0.00 | 0.00 | 0.00 | 1021.8 | |
| 20260507145029 | 10 | 291 | 3.2 | 9.7 | 0.00 | 0.00 | 0.00 | 1021.8 | |
| 20260507144548 | 11 | 49 | 1.6 | 8.0 | 0.00 | 0.00 | 0.00 | 1021.7 | |
| 20260507144027 | 11 | 0 | 0.0 | 12.9 | 0.00 | 0.00 | 0.00 | 1021.8 | |
| 20260507143524 | 10 | 0 | 3.2 | 12.9 | 0.00 | 0.00 | 0.00 | 1021.7 | |
| 20260507143045 | 10 | 286 | 6.4 | 12.9 | 0.00 | 0.00 | 0.00 | 1021.7 | |
| 20260507142525 | 10 | 268 | 3.2 | 8.0 | 0.00 | 0.00 | 0.00 | 1021.7 | |
| 20260507142024 | 10 | 283 | 3.2 | 9.7 | 0.00 | 0.00 | 0.00 | 1021.7 | |
| 20260507141544 | 10 | 281 | 1.6 | 12.9 | 0.00 | 0.00 | 0.00 | 1021.7 | |
| 20260507141026 | 9 | 293 | 1.6 | 14.5 | 0.00 | 0.00 | 0.00 | 1021.7 | |
| 20260507140528 | 9 | 285 | 4.8 | 14.5 | 0.00 | 0.00 | 0.00 | 1021.6 | |
| 20260507140043 | 9 | 293 | 4.8 | 12.9 | 0.00 | 0.00 | 0.00 | 1021.5 | |
| 20260507135524 | 9 | 288 | 4.8 | 12.9 | 0.00 | 0.00 | 0.00 | 1021.4 | |
| 20260507135025 | 9 | 282 | 8.0 | 12.9 | 0.00 | 0.00 | 0.00 | 1021.5 | |
| 20260507134537 | 9 | 292 | 3.2 | 11.3 | 0.00 | 0.00 | 0.00 | 1021.4 | |
| 20260507134027 | 9 | 283 | 3.2 | 8.0 | 0.00 | 0.00 | 0.00 | 1021.6 | |
| 20260507133525 | 9 | 268 | 4.8 | 12.9 | 0.00 | 0.00 | 0.00 | 1021.5 | |
| 20260507133038 | 8 | 355 | 6.4 | 12.9 | 0.00 | 0.00 | 0.00 | 1021.4 | |
| 20260507132524 | 8 | 282 | 6.4 | 14.5 | 0.00 | 0.00 | 0.00 | 1021.5 | |
| 20260507132024 | 8 | 285 | 4.8 | 16.1 | 0.00 | 0.00 | 0.00 | 1021.5 | |
| 20260507131537 | 8 | 274 | 8.0 | 16.1 | 0.00 | 0.00 | 0.00 | 1021.3 | |
| 20260507131024 | 8 | 297 | 8.0 | 16.1 | 0.00 | 0.00 | 0.00 | 1021.5 | |
| 20260507130526 | 9 | 301 | 6.4 | 16.1 | 0.00 | 0.00 | 0.00 | 1021.5 | |
| 20260507130041 | 8 | 283 | 11.3 | 16.1 | 0.00 | 0.00 | 0.00 | 1021.5 | |
| 20260507125523 | 9 | 288 | 8.0 | 17.7 | 0.00 | 0.00 | 0.00 | 1021.5 | |
| 20260507125026 | 9 | 322 | 6.4 | 17.7 | 0.00 | 0.00 | 0.00 | 1021.5 | |
| 20260507124540 | 9 | 268 | 6.4 | 16.1 | 0.00 | 0.00 | 0.00 | 1021.3 | |
| 20260507124023 | 9 | 286 | 8.0 | 16.1 | 0.00 | 0.00 | 0.00 | 1021.4 | |
| 20260507123524 | 9 | 285 | 9.7 | 16.1 | 0.00 | 0.00 | 0.00 | 1021.4 | |
| 20260507123043 | 9 | 295 | 6.4 | 16.1 | 0.00 | 0.00 | 0.00 | 1021.5 | |
| 20260507122525 | 9 | 306 | 8.0 | 17.7 | 0.00 | 0.00 | 0.00 | 1021.5 | |
| 20260507122026 | 9 | 282 | 9.7 | 17.7 | 0.00 | 0.00 | 0.00 | 1021.4 | |
| 20260507121538 | 9 | 290 | 9.7 | 16.1 | 0.00 | 0.00 | 0.00 | 1021.5 | |
| 20260507121024 | 10 | 286 | 6.4 | 17.7 | 0.00 | 0.00 | 0.00 | 1021.4 | |
| 20260507120523 | 10 | 286 | 9.7 | 17.7 | 0.00 | 0.00 | 0.00 | 1021.6 | |
| 20260507120044 | 10 | 279 | 3.2 | 16.1 | 0.00 | 0.00 | 0.00 | 1021.6 | |
| 20260507115523 | 10 | 295 | 6.4 | 16.1 | 0.00 | 0.00 | 0.00 | 1021.5 | |
| 20260507115023 | 10 | 292 | 6.4 | 16.1 | 0.00 | 0.00 | 0.00 | 1021.7 | |
| 20260507114545 | 10 | 99 | 8.0 | 16.1 | 0.00 | 0.00 | 0.00 | 1021.6 | |
| 20260507114029 | 10 | 319 | 6.4 | 14.5 | 0.00 | 0.00 | 0.00 | 1021.6 | |
| 20260507113527 | 10 | 276 | 4.8 | 14.5 | 0.00 | 0.00 | 0.00 | 1021.6 | |
| 20260507113038 | 10 | 268 | 6.4 | 14.5 | 0.00 | 0.00 | 0.00 | 1021.6 | |
| 20260507112524 | 10 | 290 | 4.8 | 12.9 | 0.00 | 0.00 | 0.00 | 1021.7 | |
| 20260507112024 | 10 | 0 | 1.6 | 16.1 | 0.00 | 0.00 | 0.00 | 1021.6 | |
| 20260507111545 | 10 | 39 | 4.8 | 16.1 | 0.00 | 0.00 | 0.00 | 1021.7 | |
| 20260507111023 | 10 | 259 | 8.0 | 14.5 | 0.00 | 0.00 | 0.00 | 1021.7 | |
| 20260507110523 | 10 | 277 | 6.4 | 14.5 | 0.00 | 0.00 | 0.00 | 1021.7 | |
| 20260507110038 | 10 | 169 | 4.8 | 14.5 | 0.00 | 0.00 | 0.00 | 1021.7 | |
| 20260507105525 | 10 | 170 | 3.2 | 12.9 | 0.00 | 0.00 | 0.00 | 1021.8 | |
| 20260507105023 | 10 | 282 | 4.8 | 9.7 | 0.00 | 0.00 | 0.00 | 1021.8 | |
| 20260507104544 | 10 | 286 | 1.6 | 11.3 | 0.00 | 0.00 | 0.00 | 1021.8 | |
| 20260507104023 | 10 | 280 | 1.6 | 16.1 | 0.00 | 0.00 | 0.00 | 1021.8 | |
| 20260507103526 | 10 | 243 | 4.8 | 16.1 | 0.00 | 0.00 | 0.00 | 1021.8 | |
| 20260507103040 | 10 | 305 | 4.8 | 17.7 | 0.00 | 0.00 | 0.00 | 1021.8 | |
| 20260507102525 | 10 | 278 | 8.0 | 17.7 | 0.00 | 0.00 | 0.00 | 1021.9 | |
| 20260507102026 | 10 | 39 | 8.0 | 17.7 | 0.00 | 0.00 | 0.00 | 1021.9 | |
| 20260507101543 | 10 | 39 | 6.4 | 17.7 | 0.00 | 0.00 | 0.00 | 1021.9 | |
| 20260507101027 | 10 | 276 | 3.2 | 16.1 | 0.00 | 0.00 | 0.00 | 1021.9 | |
| 20260507100525 | 10 | 288 | 3.2 | 16.1 | 0.00 | 0.00 | 0.00 | 1021.9 | |
| 20260507100037 | 10 | 192 | 3.2 | 16.1 | 0.00 | 0.00 | 0.00 | 1021.9 | |
| 20260507095524 | 10 | 308 | 6.4 | 16.1 | 0.00 | 0.00 | 0.00 | 1022.0 | |
| 20260507095029 | 10 | 292 | 6.4 | 14.5 | 0.00 | 0.00 | 0.00 | 1022.1 | |
| 20260507094541 | 11 | 0 | 1.6 | 12.9 | 0.00 | 0.00 | 0.00 | 1022.1 | |
| 20260507094027 | 11 | 304 | 3.2 | 12.9 | 0.00 | 0.00 | 0.00 | 1022.1 | |
| 20260507093523 | 11 | 324 | 1.6 | 16.1 | 0.00 | 0.00 | 0.00 | 1022.0 | |
| 20260507093043 | 11 | 274 | 4.8 | 16.1 | 0.00 | 0.00 | 0.00 | 1022.2 | |
| 20260507092526 | 11 | 297 | 3.2 | 12.9 | 0.00 | 0.00 | 0.00 | 1022.2 | |
| 20260507092023 | 11 | 317 | 4.8 | 16.1 | 0.00 | 0.00 | 0.00 | 1022.1 | |
| 20260507091540 | 11 | 355 | 4.8 | 19.3 | 0.00 | 0.00 | 0.00 | 1022.1 | |
| 20260507091023 | 11 | 311 | 8.0 | 19.3 | 0.00 | 0.00 | 0.00 | 1022.1 | |
| 20260507090525 | 11 | 288 | 4.8 | 14.5 | 0.00 | 0.00 | 0.00 | 1022.3 | |
| 20260507090042 | 11 | 268 | 1.6 | 17.7 | 0.00 | 0.00 | 0.00 | 1022.3 | |
| 20260507085527 | 11 | 53 | 4.8 | 17.7 | 0.00 | 0.00 | 0.00 | 1022.3 | |
| 20260507085024 | 11 | 0 | 4.8 | 17.7 | 0.00 | 0.00 | 0.00 | 1022.4 | |
| 20260507084541 | 11 | 259 | 1.6 | 19.3 | 0.00 | 0.00 | 0.00 | 1022.3 | |
| 20260507084028 | 11 | 252 | 8.0 | 19.3 | 0.00 | 0.00 | 0.00 | 1022.3 | |
| 20260507083526 | 11 | 293 | 4.8 | 17.7 | 0.00 | 0.00 | 0.00 | 1022.5 | |
| 20260507083039 | 11 | 262 | 8.0 | 17.7 | 0.00 | 0.00 | 0.00 | 1022.3 | |
| 20260507082524 | 11 | 280 | 6.4 | 17.7 | 0.00 | 0.00 | 0.00 | 1022.4 | |
| 20260507082023 | 11 | 309 | 8.0 | 19.3 | 0.00 | 0.00 | 0.00 | 1022.4 | |
| 20260507081538 | 11 | 276 | 9.7 | 19.3 | 0.00 | 0.00 | 0.00 | 1022.4 | |
| 20260507081025 | 11 | 284 | 9.7 | 19.3 | 0.00 | 0.00 | 0.00 | 1022.4 | |
| 20260507080526 | 11 | 286 | 6.4 | 19.3 | 0.00 | 0.00 | 0.00 | 1022.5 | |
| 20260507080040 | 11 | 281 | 11.3 | 19.3 | 0.00 | 0.00 | 0.00 | 1022.3 | |
| 20260507075525 | 11 | 280 | 8.0 | 22.5 | 0.00 | 0.00 | 0.00 | 1022.5 | |
| 20260507075025 | 11 | 218 | 9.7 | 22.5 | 0.00 | 0.00 | 0.00 | 1022.4 | |
| 20260507074539 | 11 | 290 | 8.0 | 17.7 | 0.00 | 0.00 | 0.00 | 1022.4 | |
| 20260507074026 | 11 | 285 | 8.0 | 17.7 | 0.00 | 0.00 | 0.00 | 1022.2 | |
| 20260507073525 | 11 | 290 | 11.3 | 17.7 | 0.00 | 0.00 | 0.00 | 1022.4 | |
| 20260507073039 | 11 | 280 | 9.7 | 17.7 | 0.00 | 0.00 | 0.00 | 1022.3 | |
| 20260507072527 | 11 | 278 | 6.4 | 20.9 | 0.00 | 0.00 | 0.00 | 1022.3 | |
| 20260507072027 | 11 | 293 | 9.7 | 20.9 | 0.00 | 0.00 | 0.00 | 1022.3 | |
| 20260507071536 | 11 | 286 | 11.3 | 20.9 | 0.00 | 0.00 | 0.00 | 1022.3 | |
| 20260507071025 | 11 | 295 | 12.9 | 20.9 | 0.00 | 0.00 | 0.00 | 1022.3 | |
| 20260507070526 | 11 | 329 | 8.0 | 20.9 | 0.00 | 0.00 | 0.00 | 1022.2 | |
| 20260507070037 | 11 | 306 | 12.9 | 20.9 | 0.00 | 0.00 | 0.00 | 1022.3 | |
| 20260507065526 | 11 | 297 | 11.3 | 19.3 | 0.00 | 0.00 | 0.00 | 1022.3 | |
| 20260507065027 | 11 | 283 | 11.3 | 19.3 | 0.00 | 0.00 | 0.00 | 1022.4 | |
| 20260507064550 | 11 | 286 | 11.3 | 24.1 | 0.00 | 0.00 | 0.00 | 1022.3 | |
| 20260507064023 | 11 | 288 | 11.3 | 24.1 | 0.00 | 0.00 | 0.00 | 1022.3 | |
| 20260507063527 | 11 | 282 | 11.3 | 19.3 | 0.00 | 0.00 | 0.00 | 1022.3 | |
| 20260507063037 | 11 | 329 | 8.0 | 19.3 | 0.00 | 0.00 | 0.00 | 1022.5 | |
| 20260507062527 | 11 | 283 | 11.3 | 22.5 | 0.00 | 0.00 | 0.00 | 1022.4 | |
| 20260507062026 | 11 | 291 | 11.3 | 24.1 | 0.00 | 0.00 | 0.00 | 1022.3 | |
| 20260507061538 | 11 | 300 | 9.7 | 24.1 | 0.00 | 0.00 | 0.00 | 1022.4 | |
| 20260507061023 | 11 | 297 | 8.0 | 20.9 | 0.00 | 0.00 | 0.00 | 1022.3 | |
| 20260507060525 | 11 | 281 | 14.5 | 24.1 | 0.00 | 0.00 | 0.00 | 1022.3 | |
| 20260507060037 | 11 | 280 | 12.9 | 24.1 | 0.00 | 0.00 | 0.00 | 1022.4 | |
| 20260507055524 | 11 | 292 | 11.3 | 22.5 | 0.00 | 0.00 | 0.00 | 1022.4 | |
| 20260507055024 | 12 | 275 | 11.3 | 19.3 | 0.00 | 0.00 | 0.00 | 1022.2 | |
| 20260507054540 | 12 | 275 | 8.0 | 19.3 | 0.00 | 0.00 | 0.00 | 1022.3 | |
| 20260507054029 | 12 | 99 | 4.8 | 17.7 | 0.00 | 0.00 | 0.00 | 1022.4 | |
| 20260507053529 | 12 | 283 | 8.0 | 19.3 | 0.00 | 0.00 | 0.00 | 1022.2 | |
| 20260507053044 | 12 | 286 | 8.0 | 24.1 | 0.00 | 0.00 | 0.00 | 1022.2 | |
| 20260507052528 | 12 | 278 | 14.5 | 24.1 | 0.00 | 0.00 | 0.00 | 1022.1 | |
| 20260507052028 | 12 | 279 | 11.3 | 24.1 | 0.00 | 0.00 | 0.00 | 1022.3 | |
| 20260507051538 | 12 | 285 | 8.0 | 19.3 | 0.00 | 0.00 | 0.00 | 1022.3 | |
| 20260507051030 | 12 | 298 | 4.8 | 19.3 | 0.00 | 0.00 | 0.00 | 1022.2 | |
| 20260507050527 | 12 | 0 | 8.0 | 19.3 | 0.00 | 0.00 | 0.00 | 1022.2 | |
| 20260507050040 | 12 | 39 | 8.0 | 19.3 | 0.00 | 0.00 | 0.00 | 1022.2 | |
| 20260507045527 | 12 | 306 | 4.8 | 25.7 | 0.00 | 0.00 | 0.00 | 1022.3 | |
| 20260507045027 | 12 | 316 | 6.4 | 25.7 | 0.00 | 0.00 | 0.00 | 1022.1 | |
| 20260507044537 | 12 | 259 | 8.0 | 25.7 | 0.00 | 0.00 | 0.00 | 1022.2 | |
| 20260507044026 | 12 | 222 | 8.0 | 22.5 | 0.00 | 0.00 | 0.00 | 1022.1 | |
| 20260507043528 | 13 | 274 | 6.4 | 19.3 | 0.00 | 0.00 | 0.00 | 1022.2 | |
| 20260507043038 | 13 | 293 | 6.4 | 20.9 | 0.00 | 0.00 | 0.00 | 1022.0 | |
| 20260507042525 | 13 | 230 | 6.4 | 20.9 | 0.00 | 0.00 | 0.00 | 1022.1 | |
| 20260507042028 | 13 | 71 | 3.2 | 16.1 | 0.00 | 0.00 | 0.00 | 1021.9 | |
| 20260507041552 | 13 | 273 | 4.8 | 16.1 | 0.00 | 0.00 | 0.00 | 1022.0 | |
| 20260507041028 | 13 | 99 | 3.2 | 16.1 | 0.00 | 0.00 | 0.00 | 1021.8 | |
| 20260507040531 | 13 | 39 | 6.4 | 16.1 | 0.00 | 0.00 | 0.00 | 1021.8 | |
| 20260507040042 | 13 | 138 | 4.8 | 16.1 | 0.00 | 0.00 | 0.00 | 1021.8 | |
| 20260507035529 | 13 | 290 | 4.8 | 17.7 | 0.00 | 0.00 | 0.00 | 1021.6 | |
| 20260507035028 | 13 | 359 | 4.8 | 17.7 | 0.00 | 0.00 | 0.00 | 1021.5 | |
| 20260507034538 | 14 | 264 | 6.4 | 19.3 | 0.00 | 0.00 | 0.00 | 1021.5 | |
| 20260507034028 | 14 | 99 | 8.0 | 19.3 | 0.00 | 0.00 | 0.00 | 1021.3 | |
| 20260507033531 | 14 | 307 | 3.2 | 17.7 | 0.00 | 0.00 | 0.00 | 1021.4 | |
| 20260507033045 | 14 | 300 | 6.4 | 19.3 | 0.00 | 0.00 | 0.00 | 1021.4 | |
| 20260507032526 | 14 | 281 | 4.8 | 19.3 | 0.00 | 0.00 | 0.00 | 1021.4 | |
| 20260507032028 | 14 | 302 | 3.2 | 17.7 | 0.00 | 0.00 | 0.00 | 1021.2 | |
| 20260507031536 | 15 | 275 | 4.8 | 17.7 | 0.00 | 0.00 | 0.00 | 1021.1 | |
| 20260507031028 | 15 | 255 | 3.2 | 14.5 | 0.00 | 0.00 | 0.00 | 1021.1 | |
| 20260507030529 | 15 | 268 | 3.2 | 14.5 | 0.00 | 0.00 | 0.00 | 1020.9 | |
| 20260507030038 | 15 | 307 | 3.2 | 14.5 | 0.00 | 0.00 | 0.00 | 1021.0 | |
| 20260507025528 | 15 | 276 | 3.2 | 16.1 | 0.00 | 0.00 | 0.00 | 1021.0 | |
| 20260507025026 | 15 | 286 | 4.8 | 16.1 | 0.00 | 0.00 | 0.00 | 1020.9 | |
| 20260507024542 | 16 | 141 | 3.2 | 12.9 | 0.00 | 0.00 | 0.00 | 1020.8 | |
| 20260507024028 | 16 | 16 | 4.8 | 16.1 | 0.00 | 0.00 | 0.00 | 1020.9 | |
| 20260507023528 | 16 | 99 | 4.8 | 16.1 | 0.00 | 0.00 | 0.00 | 1021.0 | |
| 20260507023037 | 16 | 252 | 4.8 | 17.7 | 0.00 | 0.00 | 0.00 | 1020.7 | |
| 20260507022026 | 16 | 284 | 4.8 | 22.5 | 0.00 | 0.00 | 0.00 | 1020.9 | |
| 20260507021537 | 17 | 309 | 4.8 | 16.1 | 0.00 | 0.00 | 0.00 | 1020.9 | |
| 20260507021023 | 17 | 99 | 3.2 | 16.1 | 0.00 | 0.00 | 0.00 | 1020.8 | |
| 20260507020526 | 17 | 285 | 3.2 | 14.5 | 0.00 | 0.00 | 0.00 | 1021.0 | |
| 20260507020037 | 18 | 192 | 1.6 | 9.7 | 0.00 | 0.00 | 0.00 | 1021.0 | |
| 20260507015526 | 17 | 316 | 3.2 | 9.7 | 0.00 | 0.00 | 0.00 | 1021.1 | |
| 20260507015029 | 18 | 284 | 1.6 | 8.0 | 0.00 | 0.00 | 0.00 | 1021.1 | |
| 20260507014554 | 18 | 124 | 1.6 | 8.0 | 0.00 | 0.00 | 0.00 | 1021.2 | |
| 20260507014029 | 18 | 99 | 1.6 | 6.4 | 0.00 | 0.00 | 0.00 | 1021.4 | |
| 20260507013527 | 18 | 284 | 0.0 | 4.8 | 0.00 | 0.00 | 0.00 | 1021.1 | |
| 20260507013045 | 18 | 282 | 1.6 | 4.8 | 0.00 | 0.00 | 0.00 | 1021.0 | |
| 20260507012528 | 18 | 0 | 0.0 | 6.4 | 0.00 | 0.00 | 0.00 | 1021.0 | |
| 20260507012030 | 18 | 116 | 1.6 | 6.4 | 0.00 | 0.00 | 0.00 | 1021.1 | |
| 20260507011540 | 18 | 295 | 1.6 | 8.0 | 0.00 | 0.00 | 0.00 | 1021.1 | |
| 20260507011026 | 19 | 295 | 1.6 | 8.0 | 0.00 | 0.00 | 0.00 | 1021.2 | |
| 20260507010526 | 19 | 295 | 0.0 | 6.4 | 0.00 | 0.00 | 0.00 | 1021.2 | |
| 20260507010036 | 19 | 277 | 1.6 | 6.4 | 0.00 | 0.00 | 0.00 | 1021.2 | |
| 20260507005527 | 20 | 268 | 1.6 | 6.4 | 0.00 | 0.00 | 0.00 | 1021.2 | |
| 20260507005023 | 20 | 268 | 1.6 | 6.4 | 0.00 | 0.00 | 0.00 | 1021.1 | |
| 20260507004535 | 20 | 0 | 0.0 | 3.2 | 0.00 | 0.00 | 0.00 | 1021.2 | |
| 20260507004028 | 20 | 356 | 0.0 | 4.8 | 0.00 | 0.00 | 0.00 | 1021.2 | |
| 20260507003527 | 20 | 183 | 0.0 | 4.8 | 0.00 | 0.00 | 0.00 | 1021.3 | |
| 20260507003038 | 20 | 355 | 0.0 | 4.8 | 0.00 | 0.00 | 0.00 | 1021.3 | |
| 20260507002526 | 20 | 280 | 0.0 | 4.8 | 0.00 | 0.00 | 0.00 | 1021.3 | |
| 20260507002027 | 20 | 227 | 1.6 | 4.8 | 0.00 | 0.00 | 0.00 | 1021.3 | |
| 20260507001544 | 20 | 268 | 0.0 | 3.2 | 0.00 | 0.00 | 0.00 | 1021.3 | |
| 20260507001026 | 20 | 64 | 0.0 | 4.8 | 0.00 | 0.00 | 0.00 | 1021.1 | |
| 20260507000530 | 20 | 0 | 0.0 | 4.8 | 0.00 | 0.00 | 0.00 | 1021.2 | |
| 20260507000036 | 21 | 252 | 0.0 | 4.8 | 0.00 | 0.00 | 0.00 | 1021.3 | |
| 20260506235526 | 21 | 0 | 1.6 | 4.8 | 0.00 | 0.00 | 0.00 | 1021.3 | |
| 20260506235026 | 22 | 99 | 0.0 | 3.2 | 0.00 | 0.00 | 0.00 | 1021.1 | |
| 20260506234536 | 22 | 64 | 0.0 | 6.4 | 0.00 | 0.00 | 0.00 | 1021.2 | |
| 20260506234026 | 22 | 166 | 0.0 | 6.4 | 0.00 | 0.00 | 0.00 | 1021.1 | |
| 20260506233527 | 22 | 239 | 1.6 | 6.4 | 0.00 | 0.00 | 0.00 | 1021.2 | |
| 20260506233043 | 24 | 243 | 1.6 | 6.4 | 0.00 | 0.00 | 0.00 | 1021.1 | |
| 20260506232526 | 24 | 99 | 1.6 | 9.7 | 0.00 | 0.00 | 0.00 | 1021.2 | |
| 20260506232035 | 22 | 39 | 1.6 | 9.7 | 0.00 | 0.00 | 0.00 | 1021.2 | |
| 20260506231540 | 22 | 276 | 1.6 | 9.7 | 0.00 | 0.00 | 0.00 | 1021.3 | |
| 20260506231026 | 24 | 99 | 1.6 | 6.4 | 0.00 | 0.00 | 0.00 | 1021.4 | |
| 20260506230526 | 23 | 55 | 1.6 | 6.4 | 0.00 | 0.00 | 0.00 | 1021.4 | |
| 20260506230037 | 23 | 39 | 1.6 | 4.8 | 0.00 | 0.00 | 0.00 | 1021.4 | |
| 20260506225526 | 23 | 0 | 0.0 | 4.8 | 0.00 | 0.00 | 0.00 | 1021.5 | |
| 20260506225029 | 22 | 248 | 0.0 | 4.8 | 0.00 | 0.00 | 0.00 | 1021.5 | |
| 20260506224540 | 21 | 131 | 0.0 | 6.4 | 0.00 | 0.00 | 0.00 | 1021.6 | |
| 20260506224026 | 20 | 243 | 1.6 | 6.4 | 0.00 | 0.00 | 0.00 | 1021.5 | |
| 20260506223526 | 20 | 295 | 1.6 | 6.4 | 0.00 | 0.00 | 0.00 | 1021.7 | |
| 20260506223036 | 20 | 268 | 1.6 | 6.4 | 0.00 | 0.00 | 0.00 | 1021.7 | |
| 20260506222526 | 21 | 277 | 1.6 | 6.4 | 0.00 | 0.00 | 0.00 | 1021.6 | |
| 20260506222027 | 21 | 243 | 0.0 | 4.8 | 0.00 | 0.00 | 0.00 | 1021.7 | |
| 20260506221536 | 21 | 64 | 1.6 | 4.8 | 0.00 | 0.00 | 0.00 | 1021.8 | |
| 20260506221026 | 23 | 322 | 0.0 | 6.4 | 0.00 | 0.00 | 0.00 | 1021.8 | |
| 20260506220527 | 22 | 227 | 1.6 | 6.4 | 0.00 | 0.00 | 0.00 | 1021.7 | |
| 20260506220042 | 23 | 99 | 1.6 | 4.8 | 0.00 | 0.00 | 0.00 | 1021.7 | |
| 20260506215526 | 26 | 227 | 1.6 | 4.8 | 0.00 | 0.00 | 0.00 | 1021.7 | |
| 20260506215026 | 25 | 99 | 1.6 | 6.4 | 0.00 | 0.00 | 0.00 | 1021.6 | |
| 20260506214540 | 23 | 0 | 1.6 | 9.7 | 0.00 | 0.00 | 0.00 | 1021.7 | |
| 20260506214027 | 23 | 338 | 1.6 | 9.7 | 0.00 | 0.00 | 0.00 | 1021.8 | |
| 20260506213526 | 23 | 221 | 0.0 | 6.4 | 0.00 | 0.00 | 0.00 | 1021.7 |